Regional Weather Roundup
Issued by NWS Newport/Morehead, NC

Current Version | Previous Version | Text Only | Print | Product List | Glossary On
Versions: 1 2 3 4 5 6 7 8 9 10 11 12 13 14 15 16 17 18 19 20 21 22 23 24 25 26 27 28 29 30 31 32 33 34 35 36 37 38 39 40 41 42 43 44 45 46 47 48 49 50
000
ASUS42 KMHX 252322
RWRMHX
WEATHER ROUNDUP FOR EASTERN NORTH CAROLINA
NATIONAL WEATHER SERVICE NEWPORT/MOREHEAD CITY NC
700 PM EDT SAT OCT 25 2014

NOTE: "FAIR" INDICATES FEW OR NO CLOUDS BELOW 12,000 FEET
WITH NO SIGNIFICANT WEATHER AND/OR OBSTRUCTIONS TO VISIBILITY

NCZ015>017-031-032-045>047-102-103-260000-
NORTH COAST

CITY           SKY/WX    TMP DP  RH WIND       PRES   REMARKS
EDENTON        CLEAR     57  51  80 CALM      29.88R
ELIZABETH CITY CLEAR     61  46  57 SW5       29.87S
KITTY HAWK     CLEAR     60  53  77 CALM      29.86S
MANTEO         CLEAR     58  52  79 CALM      29.88S

$$

NCZ045>047-081-094-103-104-260000-
CENTRAL COAST

CITY           SKY/WX    TMP DP  RH WIND       PRES   REMARKS
FRISCO         CLEAR     60  49  66 W6        29.89R
SWANQUARTER      N/A     61 N/A N/A SW5       29.85S

$$

NCZ095-097-098-100-101-260000-
SOUTHERN COAST

CITY           SKY/WX    TMP DP  RH WIND       PRES   REMARKS
BEAUFORT       CLEAR     64  52  64 W5        29.91R
CEDAR ISLAND     N/A     61 N/A N/A S3G9      29.94R
JACKSONVILLE   CLEAR     62  53  72 W3        29.91R
PINEY ISLAND   CLEAR     63  52  67 SW7       29.90R
WILMINGTON     CLEAR     63  52  67 CALM      29.91R


$$

NCZ011>013-027>030-043-044-078>080-089-090>093-098-260000-
COASTAL PLAIN

CITY           SKY/WX    TMP DP  RH WIND       PRES   REMARKS
AHOSKIE        CLEAR     54  48  81 CALM      29.88F
CLINTON        CLEAR     58  52  80 CALM      29.92S
ELIZABETHTOWN  CLEAR     59  49  68 CALM      29.93R
GOLDSBORO      CLEAR     61  53  75 CALM      29.89R
GREENVILLE     CLEAR     55  50  82 CALM      29.92S
HAVELOCK       CLEAR     62  52  69 SW6       29.92R
KENANSVILLE    CLEAR     54  48  80 CALM      29.93R
KINSTON        CLEAR     54  50  87 CALM      29.91
NEW BERN       CLEAR     61  52  72 S3        29.91R
RICHLANDS      CLEAR     57  48  72 CALM      29.92R
ROCKY MOUNT    CLEAR     58  51  78 CALM      29.90R
WASHINGTON     CLEAR     56  49  76 CALM      29.90S
WHITEVILLE     CLEAR     59  48  67 CALM      29.93R

$$

AMZ130-135-150-152-154-156-158-170-250-252-270-ANZ085-086-088-633-658-670-260000-
MARINE OBSERVATIONS

STATION/POSITION TIME  TEMP    WIND        PRES    WAVE   SWELL
                       AIR SEA DIR/SP/G            HT/PER HT/PER
                 (UTC) (F)     (DEG/KT/KT) (MB)    (FT/S) (FT/S)
CHESAPEAKE LIGHT 2300   63     200/ 13/ 15 1011.0
64 E VA BEACH    2300   64 66  270/  8/ 10 1010.4    2/10   2/10
DUCK             2300   64 66  220/  7/  9 1010.3
2 E DUCK         2300                        N/A     2/ 9
10 NE DUCK       2300      67                N/A     3/10
OREGON INLET     2300   64 66  190/  8/  9 1011.6
13E OREGON INLT  2300      69                N/A     3/ 9   2/11
HATTERAS CG      2300   66 67  260/  9/ 10 1012.5
DIAMOND BUOY     2300   66     270/ 12/ 14 1012.1    3/10   2/10
17 S OCRACOKE    2200          VRB  8/ 10  1012.0
CAPE LOOKOUT     2300   66     240/  6/  8 1012.5
BEAUFORT LAB     2300   66 68  250/  3/  7 1012.0
30 SE NEW RIVER  2300   69 75  240/  8/ 12 1012.2    2/ 9   2/ 9
5 SE WRIGHTSVLE  2300   66 72  230/ 16/ 17   N/A
225 S CAPE HAT   2240   73 77  360/ 10/ 12 1012.8    3/ 9   3/ 9
41 SE CHARLESTON 2300   69 77  250/  4/  6 1014.0    2/10   2/10

$$



USA.gov is the U.S. government's official web portal to all federal, state and local government web resources and services.